TimeMDT,TemperatureF,Dew PointF,Humidity,Sea Level PressureIn,VisibilityMPH,Wind Direction,Wind SpeedMPH,Gust SpeedMPH,PrecipitationIn,Events,Conditions,WindDirDegrees,DateUTC
12:53 AM,48.0,46.0,93,29.68,10.0,East,6.9,-,N/A,,Overcast,100,2013-09-26 06:53:00
1:53 AM,46.9,46.0,97,29.69,10.0,ESE,3.5,-,N/A,,Overcast,110,2013-09-26 07:53:00
2:53 AM,46.9,46.0,97,29.72,10.0,Calm,Calm,-,N/A,,Overcast,0,2013-09-26 08:53:00
3:53 AM,46.9,45.0,93,29.73,10.0,Calm,Calm,-,N/A,,Overcast,0,2013-09-26 09:53:00
4:30 AM,46.4,44.6,93,29.75,10.0,Calm,Calm,-,N/A,,Overcast,0,2013-09-26 10:30:00
4:44 AM,48.2,44.6,87,29.74,10.0,Calm,Calm,-,N/A,,Overcast,0,2013-09-26 10:44:00
4:53 AM,48.0,45.0,89,29.74,10.0,Calm,Calm,-,N/A,,Overcast,0,2013-09-26 10:53:00
5:53 AM,46.9,45.0,93,29.75,10.0,NW,5.8,-,N/A,,Mostly Cloudy,310,2013-09-26 11:53:00
6:28 AM,46.4,42.8,87,29.77,10.0,NW,10.4,-,N/A,,Overcast,320,2013-09-26 12:28:00
6:39 AM,44.6,42.8,93,29.78,10.0,NW,10.4,-,N/A,,Mostly Cloudy,310,2013-09-26 12:39:00
6:53 AM,45.0,42.1,90,29.78,10.0,WNW,8.1,-,N/A,,Mostly Cloudy,290,2013-09-26 12:53:00
7:53 AM,44.1,41.0,89,29.80,10.0,WNW,9.2,-,N/A,,Mostly Cloudy,290,2013-09-26 13:53:00
8:53 AM,44.1,39.9,85,29.82,10.0,WNW,17.3,-,0.01,,Mostly Cloudy,300,2013-09-26 14:53:00
9:53 AM,45.0,39.0,80,29.85,10.0,WNW,13.8,-,N/A,,Mostly Cloudy,300,2013-09-26 15:53:00
10:01 AM,44.6,39.2,81,29.84,10.0,WNW,11.5,-,N/A,,Mostly Cloudy,300,2013-09-26 16:01:00
10:53 AM,48.0,41.0,77,29.84,10.0,NNW,8.1,-,N/A,,Overcast,340,2013-09-26 16:53:00
11:24 AM,-9999,-9999,N/A,29.85,-9999.0,North,-9999.0,-,N/A,,Unknown,0,2013-09-26 17:24:00
11:53 AM,-9999,-9999,N/A,29.85,-9999.0,North,-9999.0,-,N/A,,Unknown,0,2013-09-26 17:53:00
12:53 PM,51.1,37.9,61,29.84,10.0,NW,8.1,-,N/A,,Overcast,320,2013-09-26 18:53:00
1:53 PM,53.1,37.9,57,29.83,10.0,NNW,13.8,-,N/A,,Mostly Cloudy,330,2013-09-26 19:53:00
2:53 PM,52.0,37.0,57,29.83,10.0,NNW,13.8,-,N/A,,Overcast,330,2013-09-26 20:53:00
3:53 PM,54.0,37.0,53,29.82,10.0,NNW,16.1,-,N/A,,Overcast,330,2013-09-26 21:53:00
4:53 PM,53.1,33.1,47,29.82,10.0,NNW,19.6,-,N/A,,Overcast,330,2013-09-26 22:53:00
5:53 PM,51.1,34.0,52,29.83,10.0,NW,21.9,27.6,N/A,,Overcast,320,2013-09-26 23:53:00
6:53 PM,48.9,35.1,59,29.86,10.0,NNW,19.6,29.9,N/A,,Overcast,340,2013-09-27 00:53:00
7:53 PM,48.0,35.1,61,29.88,10.0,NNW,17.3,26.5,N/A,,Overcast,330,2013-09-27 01:53:00
8:53 PM,46.9,34.0,61,29.88,10.0,NNW,21.9,-,0.00,,Overcast,330,2013-09-27 02:53:00
9:53 PM,45.0,37.9,76,29.91,10.0,NNW,6.9,-,0.02,Rain,Light Rain,340,2013-09-27 03:53:00
10:53 PM,44.1,37.9,79,29.94,6.0,Calm,Calm,-,0.04,Rain,Light Rain,0,2013-09-27 04:53:00
11:24 PM,42.8,39.2,87,29.94,9.0,South,4.6,-,0.03,Rain,Light Rain,170,2013-09-27 05:24:00
11:53 PM,43.0,41.0,93,29.93,7.0,Calm,Calm,-,0.08,Rain,Light Rain,0,2013-09-27 05:53:00